Zurück zum Katalog

CZ-6A DEB

AktivSSO
NORAD 54337·DEBRIS·🇨🇳 China

Gestartet Nov 11, 2022 von Taiyuan Satellite Launch Center

Loading…

Nächste Überflüge (nächste 24 Stunden)

TLE

AktuellSource: Space-Track

Epoche: Sep 14, 2026, 10:49 UTC

1 54337U 22151CG  26257.45085313  .00000266  00000-0  17311-3 0  9994
2 54337  98.8558 255.5011 0051251  90.6392 270.0652 14.09998329196944

Verfolge CZ-6A DEB in Echtzeit mit AllMySat

Download on the App Store